Location: Monrovia
(34.7865°N, 86.7139°W)
Time: 00:45:23
(UTC+00:00)

Cosmos 1603 - Pass Details

Date: 14 July 2020
Orbit: 830 x 861 km, 71.0° (Epoch: 12 August)

Event Time Altitude Azimuth Distance (km) Brightness Sun altitude
Exits shadow 04:31:58 58° 30° (NNE) 981 4.1 -30.4°
Drops below altitude 10° 04:36:32 10° 23° (NNE) 2,486 6.7 -30.8°
Sets 04:39:00 0° 22° (NNE) 3,429 7.5 -30.9°
